| time (UTC) | temp F | wind direction | speed MPH | gust MPH | rain 1hr in | rain 24hr in | rain mn in | humidity % | barometer mb |
| 20260906113100 | 61 | 0 | 0.0 | 0.0 | 0.00 | 0.00 | 0.00 | 100 | 1013.3 |
| 20260906111556 | 61 | 0 | 0.0 | 0.0 | 0.00 | 0.00 | 0.00 | 100 | 1013.1 |
| 20260906110108 | 61 | 0 | 0.0 | 0.0 | 0.00 | 0.00 | 0.00 | 99 | 1013.1 |
| 20260906104605 | 61 | 0 | 0.0 | 0.0 | 0.00 | 0.00 | 0.00 | 99 | 1013.0 |
| 20260906103103 | 61 | 0 | 0.0 | 0.0 | 0.00 | 0.00 | 0.00 | 99 | 1012.8 |
| 20260906101600 | 61 | 0 | 0.0 | 0.0 | 0.00 | 0.00 | 0.00 | 99 | 1012.4 |
| 20260906094559 | 62 | 0 | 0.0 | 0.0 | 0.00 | 0.00 | 0.00 | 99 | 1012.2 |
| 20260906093118 | 62 | 0 | 0.0 | 0.0 | 0.00 | 0.00 | 0.00 | 99 | 1012.0 |
| 20260906091606 | 62 | 0 | 0.0 | 0.0 | 0.00 | 0.00 | 0.00 | 99 | 1011.9 |
| 20260906090122 | 62 | 0 | 0.0 | 0.0 | 0.00 | 0.00 | 0.00 | 99 | 1011.8 |
| 20260906084558 | 62 | 0 | 0.0 | 0.0 | 0.00 | 0.00 | 0.00 | 99 | 1011.8 |
| 20260906083103 | 63 | 0 | 0.0 | 0.0 | 0.00 | 0.00 | 0.00 | 99 | 1011.8 |
| 20260906081601 | 63 | 0 | 0.0 | 0.0 | 0.00 | 0.00 | 0.00 | 99 | 1011.5 |
| 20260906080104 | 63 | 0 | 0.0 | 0.0 | 0.00 | 0.00 | 0.00 | 99 | 1011.5 |
| 20260906074600 | 63 | 0 | 0.0 | 0.0 | 0.00 | 0.00 | 0.00 | 99 | 1011.4 |
| 20260906073114 | 63 | 0 | 0.0 | 0.0 | 0.00 | 0.00 | 0.00 | 99 | 1011.3 |
| 20260906071610 | 63 | 0 | 0.0 | 0.0 | 0.00 | 0.00 | 0.00 | 99 | 1011.3 |
| 20260906070059 | 63 | 0 | 0.0 | 0.0 | 0.00 | 0.00 | 0.00 | 99 | 1011.3 |
| 20260906064604 | 63 | 0 | 0.0 | 0.0 | 0.00 | 0.00 | 0.00 | 99 | 1011.3 |
| 20260906063103 | 64 | 0 | 0.0 | 0.0 | 0.00 | 0.00 | 0.00 | 99 | 1011.4 |
| 20260906061604 | 64 | 0 | 0.0 | 0.0 | 0.00 | 0.00 | 0.00 | 99 | 1011.4 |
| 20260906060100 | 64 | 0 | 0.0 | 0.0 | 0.00 | 0.00 | 0.00 | 99 | 1011.6 |
| 20260906054603 | 64 | 0 | 0.0 | 0.0 | 0.00 | 0.00 | 0.00 | 99 | 1011.7 |
| 20260906053058 | 64 | 0 | 0.0 | 1.0 | 0.00 | 0.00 | 0.00 | 99 | 1011.8 |
| 20260906051606 | 64 | 0 | 0.0 | 0.0 | 0.00 | 0.00 | 0.00 | 98 | 1012.0 |
| 20260906050132 | 64 | 0 | 0.0 | 1.0 | 0.00 | 0.00 | 0.00 | 98 | 1011.9 |
| 20260906044559 | 64 | 0 | 0.0 | 0.0 | 0.00 | 0.00 | 0.00 | 98 | 1012.2 |
| 20260906043111 | 64 | 0 | 0.0 | 0.0 | 0.00 | 0.00 | 0.00 | 98 | 1012.2 |
| 20260906041602 | 64 | 0 | 0.0 | 0.0 | 0.00 | 0.00 | 0.00 | 98 | 1012.2 |
| 20260906040112 | 64 | 0 | 0.0 | 0.0 | 0.00 | 0.00 | 0.00 | 97 | 1012.3 |
| 20260906034558 | 65 | 0 | 0.0 | 0.0 | 0.00 | 0.00 | 0.00 | 97 | 1012.5 |
| 20260906033108 | 65 | 0 | 0.0 | 0.0 | 0.00 | 0.00 | 0.00 | 97 | 1012.4 |
| 20260906031602 | 65 | 0 | 0.0 | 0.0 | 0.00 | 0.00 | 0.00 | 97 | 1012.5 |
| 20260906030134 | 65 | 0 | 0.0 | 0.0 | 0.00 | 0.00 | 0.00 | 96 | 1012.4 |
| 20260906024557 | 66 | 0 | 0.0 | 0.0 | 0.00 | 0.00 | 0.00 | 96 | 1012.4 |
| 20260906023124 | 66 | 0 | 0.0 | 0.0 | 0.00 | 0.00 | 0.00 | 96 | 1012.4 |
| 20260906021612 | 66 | 0 | 0.0 | 0.0 | 0.00 | 0.00 | 0.00 | 95 | 1012.3 |
| 20260906020107 | 67 | 0 | 0.0 | 0.0 | 0.00 | 0.00 | 0.00 | 95 | 1012.4 |
| 20260906014623 | 67 | 0 | 0.0 | 0.0 | 0.00 | 0.00 | 0.00 | 95 | 1012.2 |
| 20260906013101 | 68 | 0 | 0.0 | 0.0 | 0.00 | 0.00 | 0.00 | 95 | 1011.9 |
| 20260906011606 | 68 | 0 | 0.0 | 0.0 | 0.00 | 0.00 | 0.00 | 94 | 1011.8 |
| 20260906010058 | 68 | 0 | 0.0 | 0.0 | 0.00 | 0.00 | 0.00 | 94 | 1011.6 |
| 20260906004556 | 69 | 0 | 0.0 | 0.0 | 0.00 | 0.00 | 0.00 | 93 | 1011.5 |
| 20260906003109 | 69 | 0 | 0.0 | 0.0 | 0.00 | 0.00 | 0.00 | 92 | 1011.6 |
| 20260906001603 | 70 | 0 | 0.0 | 0.0 | 0.00 | 0.00 | 0.00 | 90 | 1011.5 |
| 20260906000059 | 71 | 0 | 0.0 | 0.0 | 0.00 | 0.00 | 0.00 | 88 | 1011.2 |
| 20260905234618 | 72 | 0 | 0.0 | 0.0 | 0.00 | 0.00 | 0.00 | 87 | 1011.0 |
| 20260905233103 | 73 | 0 | 0.0 | 0.0 | 0.00 | 0.00 | 0.00 | 84 | 1011.0 |
| 20260905231602 | 74 | 0 | 0.0 | 0.0 | 0.00 | 0.00 | 0.00 | 82 | 1011.1 |
| 20260905230100 | 76 | 298 | 0.0 | 1.0 | 0.00 | 0.00 | 0.00 | 77 | 1011.1 |
| 20260905224610 | 77 | 354 | 1.0 | 3.0 | 0.00 | 0.00 | 0.00 | 74 | 1010.9 |
| 20260905223102 | 77 | 295 | 1.0 | 4.0 | 0.00 | 0.00 | 0.00 | 75 | 1010.8 |
| 20260905221603 | 77 | 338 | 1.0 | 3.0 | 0.00 | 0.00 | 0.00 | 75 | 1010.7 |
| 20260905220056 | 78 | 351 | 1.0 | 3.0 | 0.00 | 0.00 | 0.00 | 74 | 1010.6 |
| 20260905214611 | 78 | 311 | 0.0 | 5.0 | 0.00 | 0.00 | 0.00 | 76 | 1010.4 |
| 20260905213111 | 79 | 340 | 3.0 | 6.0 | 0.00 | 0.00 | 0.00 | 74 | 1010.3 |
| 20260905211603 | 81 | 330 | 3.0 | 6.0 | 0.00 | 0.00 | 0.00 | 71 | 1010.1 |
| 20260905210101 | 82 | 295 | 0.0 | 2.0 | 0.00 | 0.00 | 0.00 | 75 | 1009.9 |
| 20260905204559 | 81 | 220 | 2.0 | 4.0 | 0.00 | 0.00 | 0.00 | 75 | 1009.6 |
| 20260905203105 | 81 | 0 | 0.0 | 3.0 | 0.00 | 0.00 | 0.00 | 76 | 1009.4 |
| 20260905201607 | 83 | 25 | 1.0 | 3.0 | 0.00 | 0.00 | 0.00 | 73 | 1009.4 |
| 20260905194603 | 80 | 5 | 0.0 | 1.0 | 0.00 | 0.00 | 0.00 | 79 | 1010.0 |
| 20260905193101 | 81 | 0 | 0.0 | 3.0 | 0.00 | 0.00 | 0.00 | 76 | 1010.4 |
| 20260905191613 | 81 | 0 | 0.0 | 4.0 | 0.00 | 0.00 | 0.00 | 71 | 1010.6 |
| 20260905184610 | 81 | 290 | 2.0 | 5.0 | 0.00 | 0.00 | 0.00 | 76 | 1011.0 |
| 20260905183103 | 80 | 344 | 3.0 | 5.0 | 0.00 | 0.00 | 0.00 | 71 | 1011.0 |
| 20260905181606 | 81 | 303 | 2.0 | 7.0 | 0.00 | 0.00 | 0.00 | 73 | 1011.0 |
| 20260905174617 | 82 | 300 | 0.0 | 7.0 | 0.00 | 0.00 | 0.00 | 69 | 1011.1 |
| 20260905173112 | 81 | 322 | 4.0 | 10.0 | 0.00 | 0.00 | 0.00 | 69 | 1011.1 |
| 20260905171602 | 82 | 327 | 4.0 | 7.0 | 0.00 | 0.00 | 0.00 | 70 | 1010.9 |
| 20260905170059 | 81 | 314 | 0.0 | 5.0 | 0.00 | 0.00 | 0.00 | 72 | 1011.0 |
| 20260905164605 | 81 | 303 | 2.0 | 7.0 | 0.00 | 0.00 | 0.00 | 74 | 1011.1 |
| 20260905163107 | 81 | 337 | 2.0 | 7.0 | 0.00 | 0.00 | 0.00 | 71 | 1011.2 |
| 20260905161600 | 81 | 10 | 3.0 | 7.0 | 0.00 | 0.00 | 0.00 | 71 | 1011.4 |
| 20260905160110 | 82 | 322 | 2.0 | 5.0 | 0.00 | 0.00 | 0.00 | 67 | 1011.6 |
| 20260905154605 | 81 | 347 | 1.0 | 6.0 | 0.00 | 0.00 | 0.00 | 71 | 1011.8 |
| 20260905153102 | 81 | 31 | 1.0 | 7.0 | 0.00 | 0.00 | 0.00 | 66 | 1011.8 |
| 20260905151558 | 80 | 340 | 4.0 | 8.0 | 0.00 | 0.00 | 0.00 | 69 | 1011.7 |
| 20260905150105 | 80 | 309 | 2.0 | 7.0 | 0.00 | 0.00 | 0.00 | 68 | 1011.8 |
| 20260905144601 | 80 | 293 | 4.0 | 8.0 | 0.00 | 0.00 | 0.00 | 70 | 1011.8 |
| 20260905143100 | 80 | 314 | 2.0 | 5.0 | 0.00 | 0.00 | 0.00 | 76 | 1011.6 |
| 20260905141612 | 79 | 327 | 1.0 | 7.0 | 0.00 | 0.00 | 0.00 | 78 | 1011.5 |
| 20260905140107 | 78 | 300 | 2.0 | 8.0 | 0.00 | 0.00 | 0.00 | 78 | 1011.4 |
| 20260905134610 | 78 | 256 | 1.0 | 6.0 | 0.00 | 0.00 | 0.00 | 82 | 1011.2 |
| 20260905133100 | 77 | 331 | 2.0 | 6.0 | 0.00 | 0.00 | 0.00 | 89 | 1011.0 |
| 20260905131559 | 76 | 300 | 1.0 | 5.0 | 0.00 | 0.00 | 0.00 | 95 | 1010.8 |
| 20260905130113 | 76 | 1 | 1.0 | 5.0 | 0.00 | 0.00 | 0.00 | 96 | 1011.0 |
| 20260905124601 | 75 | 295 | 2.0 | 6.0 | 0.00 | 0.00 | 0.00 | 97 | 1010.9 |
| 20260905123109 | 75 | 324 | 2.0 | 4.0 | 0.00 | 0.00 | 0.00 | 98 | 1011.0 |
| 20260905121602 | 74 | 340 | 1.0 | 3.0 | 0.00 | 0.00 | 0.00 | 99 | 1010.8 |
| 20260905120112 | 74 | 0 | 0.0 | 0.0 | 0.00 | 0.00 | 0.00 | 99 | 1010.7 |
| 20260905114637 | 73 | 0 | 0.0 | 0.0 | 0.00 | 0.00 | 0.00 | 100 | 1010.7 |